{"data":{"norad_id":54095,"intl_designator":"2022-136AW","name":"STARLINK-5193","alt_names":[],"object_type":"PAYLOAD","status":"ACTIVE","operator":null,"country":"US","launch_date":"2022-10-20","launch_site_code":"AFETR","launch_vehicle":null,"mission":null,"orbit_class":"UNKNOWN","rcs_meters":null,"size_class":null,"mass_kg":null,"dimensions":null,"purposes":["comms"],"wikipedia_slug":null,"has_3d_model":false,"image_url":null,"decayed_at":null,"tle_current":{"epoch":"2026-09-20T22:00:03.000096Z","epoch_age_seconds":53276,"freshness":"FRESH","line1":"1 54095U 22136AW  26263.91670139  .00006438  00000+0  32909-3 0  9998","line2":"2 54095  53.1606 176.3640 0001596  68.5497  33.8327 15.17870434  5699","mean_motion":15.17870434,"eccentricity":0.0001596,"inclination_deg":53.1606,"raan_deg":176.364,"arg_perigee_deg":68.5497,"mean_anomaly_deg":33.8327,"bstar":0.00032909,"rev_number":569,"period_min":94.869757506588,"perigee_km":511.17819378595,"apogee_km":513.37761422331,"semimajor_km":6890.4149040046,"source":"CELESTRAK","updated_at":"2026-09-21T09:00:33.084210Z"}}}